Regional Weather Roundup
Issued by NWS

Home | Current Version | Previous Version | Text Only | Print | Product List | Glossary On
Versions: 1 2 3 4 5 6 7 8 9 10 11 12 13 14 15 16 17 18 19 20 21 22 23 24 25 26 27 28 29 30 31 32 33 34 35 36 37 38 39 40 41 42 43 44 45 46 47 48 49 50
000
ASUS43 KDTX 162310
RWRMI
MICHIGAN HOURLY REGIONAL WEATHER ROUNDUP
NATIONAL WEATHER SERVICE DETROIT/PONTIAC MI
700 PM EDT TUE SEP 16 2014

NOTE: "FAIR" INDICATES FEW OR NO CLOUDS BELOW 12,000 FEET WITH NO
SIGNIFICANT WEATHER AND/OR OBSTRUCTION TO VISIBILITY.

MIZ047>049-052>055-059>063-066>070-074>076-081>083-170000-
SOUTHEAST LOWER MICHIGAN

CITY           SKY/WX    TMP DP  RH WIND       PRES   REMARKS
ADRIAN         CLEAR     64  42  44 NW7       30.09S
ALMA           PTCLDY    60  41  50 SW7       30.09S
ANN ARBOR      CLEAR     62  43  49 NW6       30.08S
BAD AXE        MOCLDY    59  48  66 W6        30.07S
DETROIT CITY   MOCLDY    67  41  38 NW5       30.08R
DETROIT        PTCLDY    63  42  46 W6        30.09S
FLINT          PTCLDY    64  45  49 W10       30.08S
GROSSE ILE     CLEAR     63  52  67 S9        30.07F
HILLSDALE      PTCLDY    63  44  48 W6        30.10S
HOWELL         PTCLDY    60  45  57 SW3       30.08S

CITY           SKY/WX    TMP DP  RH WIND       PRES   REMARKS
JACKSON        PTCLDY    61  45  55 W3        30.09S
LAMBERTVILLE   CLEAR     64  46  52 CALM      30.10R
LANSING        CLEAR     61  44  53 W10       30.09S
LAPEER         NOT AVBL
MASON          MOCLDY    60  47  62 NW6       30.08S
MONROE         PTCLDY    64  46  52 W3        30.07S
MT. CLEMENS    PTCLDY    60  47  62 S5        30.06S
PONTIAC        PTCLDY    62  42  47 NW6       30.08S
PORT HOPE        N/A     60  44  55 W6        30.04F
PORT HURON     PTCLDY    59  48  67 CALM      30.08S
TRI CITIES     MOCLDY    62  45  53 W8        30.08S
YPSILANTI      MOCLDY    67  44  43 NW3       30.09S
$$
MIZ043>046-050>051-056>058-064>065-071>073-077>080-170000-
SOUTHWEST LOWER MICHIGAN

CITY           SKY/WX    TMP DP  RH WIND       PRES   REMARKS
BATTLE CREEK   CLEAR     61  44  53 NW12      30.10F
BENTON HARBOR  CLEAR     59  44  57 NW3       30.12S
BIG RAPIDS     CLEAR     59  43  56 W6        30.09R
COLDWATER      MOCLDY    64  48  56 W3        30.09S
HOLLAND        CLEAR     59  43  55 NW5       30.12F
GRAND RAPIDS   PTCLDY    59  42  53 W14       30.11S
KALAMAZOO      PTCLDY    61  44  53 NW12G21   30.12R
MARSHALL       PTCLDY    63  47  57 NW6       30.08F
MUSKEGON       CLEAR     59  40  49 NW5       30.11F
$$
MIZ016>042-170000-
NORTHERN LOWER MICHIGAN

CITY           SKY/WX    TMP DP  RH WIND       PRES   REMARKS
ALPENA         CLEAR     61  40  45 W6        30.03R
BEAVER ISLAND  CLEAR     60  47  63 SW9G18    30.01S
BELLAIRE       CLEAR     60  40  47 SW7       30.05S
CADILLAC       CLEAR     56  42  59 W6        30.07S
CHARLEVOIX     CLEAR     59  44  56 SW13G18   30.06F
FRANKFORT      CLEAR     60  44  54 SW6       30.07S
GAYLORD        CLEAR     58  38  47 W9        30.05S
GRAYLING       CLEAR     60  40  48 CALM      30.06R
HARBOR SPRINGS CLEAR     59  40  48 SW12G17   30.03F
HOUGHTON LAKE  CLEAR     59  41  51 W8        30.06S
MANISTEE       CLEAR     57  43  58 SW6       30.09S
OSCODA         CLEAR     61  44  54 W8        30.03S
PELLSTON       CLEAR     58  43  57 W10       30.02F
TRAVERSE CITY  CLEAR     60  37  42 SW10      30.05S
$$
MIZ007>008-015-170000-
EASTERN UPPER MICHIGAN

CITY           SKY/WX    TMP DP  RH WIND       PRES   REMARKS
KINROSS        CLOUDY    57  45  62 SW6       29.98S
MACKINAC ISLAN PTCLDY    58  44  60 SW13G24   30.00F
NEWBERRY       CLOUDY    57  47  69 SW14      29.97S
S. S. MARIE    MOCLDY    58  44  60 SW9       29.97R
$$
MIZ004>006-011>014-085-170000-
CENTRAL UPPER MICHIGAN

CITY           SKY/WX    TMP DP  RH WIND       PRES   REMARKS
MANISTIQUE     PTCLDY    58  52  80 SW15      29.98S
ESCANABA       CLEAR     66  43  42 W9        29.99R
MENOMINEE      CLEAR     64  45  48 W6        30.01S
SAWYER-GWINN   CLOUDY    64  43  45 W5        29.98R
$$
MIZ001>003-009>011-084-170000-
WESTERN UPPER MICHIGAN

CITY           SKY/WX    TMP DP  RH WIND       PRES   REMARKS
IRON MOUNTAIN  CLEAR     65  40  39 W9        29.99S
HOUGHTON       CLOUDY    56  43  61 NW13      29.97R
COPPER HARBOR    N/A     54  46  74 N8        29.98S
IRONWOOD       MOSUNNY   64  45  48 W9        29.98R
$$

ABBREVIATIONS USED IN REMARKS
   TC - TEMPERATURE IN CELSIUS
  WCI - WIND CHILL INDEX
   HX - HEAT INDEX
  VSB - VISIBILITY




USA.gov is the U.S. government's official web portal to all federal, state and local government web resources and services.